Printer-friendly version

IAU Minor Planet Center

Minor Planet Center

MPEC 2006-W24 : 2006 WV

The following Minor Planet Electronic Circular may be linked-to from your own Web pages, but must not otherwise be redistributed electronically.


Read MPEC 2006-W23 Read MPEC 2006-W25


M.P.E.C. 2006-W24                                Issued 2006 Nov. 19, 04:14 UT

     The Minor Planet Electronic Circulars contain information on unusual
         minor planets and routine data on comets.  They are published
   on behalf of Commission 20 of the International Astronomical Union by the
          Minor Planet Center, Smithsonian Astrophysical Observatory,
                          Cambridge, MA 02138, U.S.A.

             Prepared using the Tamkin Foundation Computer Network

                              MPC@CFA.HARVARD.EDU
          URL http://cfa-www.harvard.edu/iau/mpc.html  ISSN 1523-6714

                                    2006 WV

Observations:
     K06W00V* C2006 11 17.35564 03 36 07.56 +17 02 55.4          20.4 V EW024703
     K06W00V  C2006 11 17.36309 03 36 07.81 +17 03 16.7          20.3 V EW024703
     K06W00V  C2006 11 17.37060 03 36 08.02 +17 03 36.0          19.7 V EW024703
     K06W00V  C2006 11 17.37815 03 36 08.38 +17 03 59.1          20.3 V EW024703
     K06W00V  C2006 11 17.41829 03 36 10.21 +17 05 48.0          19.8 V EW024703
     K06W00V  C2006 11 17.42009 03 36 10.35 +17 05 52.6          19.8 V EW024703
     K06W00V  C2006 11 17.42190 03 36 10.45 +17 05 58.6          19.9 V EW024703
     K06W00V  C2006 11 18.30117 03 38 46.10 +18 02 32.7          19.5 V EW024G96
     K06W00V  C2006 11 18.30837 03 38 46.75 +18 03 07.6          19.3 V EW024G96
     K06W00V  C2006 11 18.31554 03 38 47.40 +18 03 42.8          19.6 V EW024G96
     K06W00V  C2006 11 18.33827 03 38 49.48 +18 05 34.7          19.0 V EW024G96
     K06W00V  C2006 11 18.34800 03 38 50.42 +18 06 22.4          19.5 V EW024G96
     K06W00V  C2006 11 18.35789 03 38 51.39 +18 07 10.8          19.5 V EW024G96
     K06W00V  C2006 11 18.82452 03 41 13.16 +18 51 35.6          18.8 R EW024113
     K06W00V  C2006 11 18.82538 03 41 13.38 +18 51 42.3          19.1 R EW024113
     K06W00V  C2006 11 18.82625 03 41 13.57 +18 51 48.7          19.2 R EW024113
     K06W00V  C2006 11 18.82711 03 41 13.78 +18 51 55.0          19.2 R EW024113
     K06W00V  C2006 11 18.82797 03 41 13.97 +18 52 01.2          18.8 R EW024113
     K06W00V  C2006 11 18.94958 03 41 46.85 +19 08 31.0          19.4 V EW024941
     K06W00V  C2006 11 18.95044 03 41 47.03 +19 08 38.4          19.2 V EW024941
     K06W00V  C2006 11 18.95175 03 41 47.29 +19 08 48.8          19.1 V EW024941
     K06W00V  C2006 11 18.95522 03 41 48.00 +19 09 17.2          19.1 V EW024941
     K06W00V  C2006 11 19.05751 03 42 11.95 +19 21 46.1                 EW024J95
     K06W00V  C2006 11 19.05887 03 42 12.28 +19 21 57.1                 EW024J95
     K06W00V  C2006 11 19.06022 03 42 12.67 +19 22 08.4          18.9 R EW024J95

Observer details:
113 Volkssternwarte Drebach, Schoenbrunn.  Observer G. Lehmann.  0.5-m f/5
    reflector + CCD.
703 Catalina Sky Survey.  Observer E. J. Christensen.  Measurers E. C. Beshore,
    E. J. Christensen, G. J. Garradd, A. R. Gibbs, A. D. Grauer, R. E. Hill,
    R. A. Kowalski, S. M. Larson, R. H. McNaught.  0.68-m Schmidt + CCD.
941 Observatorio Pla D'Arguines.  Observers R. Ferrando, M. Ferrando.
    Measurer R. Ferrando.  0.36-m f/10 Schmidt-Cassegrain + CCD.
G96 Mt. Lemmon Survey.  Observer S. M. Larson.  Measurers E. C. Beshore,
    E. J. Christensen, G. J. Garradd, A. R. Gibbs, A. D. Grauer, R. E. Hill,
    R. A. Kowalski, S. M. Larson, R. H. McNaught.  1.5-m reflector + CCD.
J95 Great Shefford.  Observer P. Birtwhistle.  0.40-m f/6.0 Schmidt-Cassegrain
    + CCD.

Orbital elements:
2006 WV                                                  Earth MOID = 0.0016 AU
Epoch 2006 Sept. 22.0 TT = JDT 2454000.5                MPC
M 304.31798              (2000.0)            P               Q
n   0.51066037     Peri.   79.64341     -0.72204960     -0.69099880
a   1.5501770      Node    56.63742     +0.61768824     -0.66609548
e   0.5361768      Incl.    2.34217     +0.31161775     -0.28078010
P   1.93           H   27.2           G   0.15           U   7
Residuals in seconds of arc
061117 703  0.2+  0.5-    061118 G96  0.4-  0.1-    061118 941  0.4-  0.5-
061117 703  0.0   0.2+    061118 G96  0.6-  0.3+    061118 941  0.4-  0.0
061117 703  1.0-  1.2-    061118 G96  0.5-  0.3+    061118 941  0.5-  0.0
061117 703  0.0   1.1+    061118 G96  0.5-  0.2+    061118 941  0.6-  0.8+
061117 703  0.7-  0.4+    061118 113  0.3-  0.1+    061119 J95  0.4-  0.3+
061117 703  0.1-  0.1+    061118 113  0.1-  0.5+    061119 J95  0.7-  0.0
061117 703  0.1-  1.2+    061118 113  0.4-  0.5+    061119 J95  0.1-  0.2+
061118 G96  0.6-  0.4+    061118 113  0.3-  0.4+
061118 G96  0.5-  0.1-    061118 113  0.5-  0.2+

Ephemeris:
2006 WV                  a,e,i = 1.55, 0.54, 2                   q = 0.7190
Date    TT    R. A. (2000) Decl.     Delta      r     Elong.  Phase     V
2006 11 11    03 30.93   +15 04.9    0.0893   1.079   173.1     6.4    22.6
2006 11 12    03 31.33   +15 12.7    0.0806   1.070   173.9     5.7    22.3
2006 11 13    03 31.80   +15 22.5    0.0719   1.061   174.6     5.0    22.0
2006 11 14    03 32.37   +15 35.1    0.0633   1.053   175.3     4.4    21.7
2006 11 15    03 33.11   +15 51.8    0.0547   1.044   176.0     3.8    21.3
2006 11 16    03 34.10   +16 14.7    0.0462   1.035   176.6     3.2    20.9
2006 11 17    03 35.53   +16 48.2    0.0376   1.026   177.3     2.6    20.4
2006 11 18    03 37.80   +17 41.2    0.0291   1.018   178.1     1.9    19.8
2006 11 19    03 41.96   +19 17.6    0.0207   1.009   178.7     1.3    19.0
2006 11 20    03 52.18   +23 04.9    0.0123   1.000   175.6     4.4    18.0
2006 11 21    04 54.67   +40 57.1    0.00427  0.992   154.1    25.7    16.5
2006 11 22    14 37.93   +07 48.2    0.00543  0.983    32.9   147.0    23.7
2006 11 23    15 08.98   -05 42.7    0.0136   0.975    18.1   161.7    29.4

Gareth V. Williams           (C) Copyright 2006 MPC           M.P.E.C. 2006-W24

Read MPEC 2006-W23 Read MPEC 2006-W25


Our Web policy. Index to the CBAT/MPC/ICQ pages.


Valid HTML 4.01!